When you browse on this site, cookies collect data to enhance your experience and personalize the content and advertising you see.
Visit our Privacy Policy to learn more. By continuing to use the site, you agree to this use of cookies and data.

Hourly Weather Ashdod

Today, 12 August, Wednesday

Time Temperature Precipitation Wind Pressure Humidity
00:00 +25°C° 0 mm 1 mps 755 mmHg 81%
01:00 +26°C° 0 mm 2 mps 755 mmHg 79%
02:00 +27°C° 0 mm 2 mps 754 mmHg 75%
03:00 +27°C° 0 mm 2 mps 754 mmHg 74%
04:00 +27°C° 0 mm 2 mps 755 mmHg 73%
05:00 +27°C° 0 mm 2 mps 755 mmHg 73%
06:00 +28°C° 0 mm 2 mps 755 mmHg 68%
07:00 +29°C° 0 mm 2 mps 755 mmHg 63%
08:00 +30°C° 0 mm 2 mps 755 mmHg 59%
09:00 +31°C° 0 mm 3 mps 755 mmHg 57%
10:00 +33°C° 0 mm 3 mps 755 mmHg 54%
11:00 +34°C° 0 mm 4 mps 755 mmHg 52%
12:00 +34°C° 0 mm 4 mps 755 mmHg 52%
13:00 +34°C° 0 mm 5 mps 754 mmHg 53%
14:00 +34°C° 0 mm 5 mps 754 mmHg 54%
15:00 +33°C° 0 mm 5 mps 754 mmHg 56%
16:00 +33°C° 0 mm 4 mps 754 mmHg 59%
17:00 +32°C° 0 mm 4 mps 754 mmHg 61%
18:00 +30°C° 0 mm 4 mps 754 mmHg 68%
19:00 +28°C° 0 mm 3 mps 754 mmHg 75%
20:00 +27°C° 0 mm 2 mps 755 mmHg 82%
21:00 +27°C° 0 mm 2 mps 755 mmHg 84%
22:00 +26°C° 0 mm 1 mps 755 mmHg 85%
23:00 +26°C° 0 mm 1 mps 755 mmHg 87%

Tomorrow, 13 August, Thursday

Time Temperature Precipitation Wind Pressure Humidity
00:00 +25°C° 0 mm 1 mps 754 mmHg 87%
01:00 +25°C° 0 mm 1 mps 754 mmHg 87%
02:00 +25°C° 0 mm 1 mps 754 mmHg 88%
03:00 +25°C° 0 mm 1 mps 754 mmHg 88%
04:00 +25°C° 0 mm 1 mps 754 mmHg 89%
05:00 +25°C° 0 mm 2 mps 754 mmHg 89%
06:00 +27°C° 0 mm 2 mps 754 mmHg 82%
07:00 +28°C° 0 mm 2 mps 754 mmHg 74%
08:00 +30°C° 0 mm 2 mps 754 mmHg 67%
09:00 +31°C° 0 mm 3 mps 754 mmHg 61%
10:00 +34°C° 0 mm 4 mps 754 mmHg 56%
11:00 +35°C° 0 mm 4 mps 754 mmHg 50%
12:00 +35°C° 0 mm 5 mps 753 mmHg 50%
13:00 +35°C° 0 mm 5 mps 753 mmHg 50%
14:00 +35°C° 0 mm 5 mps 752 mmHg 50%
15:00 +34°C° 0 mm 5 mps 752 mmHg 54%
16:00 +33°C° 0 mm 5 mps 752 mmHg 58%
17:00 +33°C° 0 mm 5 mps 752 mmHg 62%
18:00 +30°C° 0 mm 4 mps 752 mmHg 70%
19:00 +29°C° 0 mm 3 mps 753 mmHg 78%
20:00 +27°C° 0 mm 2 mps 753 mmHg 86%
21:00 +27°C° 0 mm 1 mps 753 mmHg 86%
22:00 +26°C° 0 mm 1 mps 753 mmHg 87%
23:00 +26°C° 0 mm 1 mps 753 mmHg 88%

Day after tomorrow, 14 August, Friday

Time Temperature Precipitation Wind Pressure Humidity
00:00 +25°C° 0 mm 1 mps 753 mmHg 88%
01:00 +25°C° 0 mm 1 mps 753 mmHg 89%
02:00 +25°C° 0 mm 1 mps 752 mmHg 89%
03:00 +25°C° 0 mm 1 mps 752 mmHg 89%
04:00 +25°C° 0 mm 1 mps 752 mmHg 89%
05:00 +25°C° 0 mm 2 mps 752 mmHg 90%
06:00 +27°C° 0 mm 2 mps 752 mmHg 82%
07:00 +28°C° 0 mm 3 mps 753 mmHg 75%
08:00 +30°C° 0 mm 3 mps 753 mmHg 67%
09:00 +33°C° 0 mm 4 mps 752 mmHg 60%
10:00 +34°C° 0 mm 4 mps 752 mmHg 53%
11:00 +36°C° 0 mm 5 mps 752 mmHg 46%
12:00 +36°C° 0 mm 5 mps 752 mmHg 47%
13:00 +36°C° 0 mm 5 mps 751 mmHg 49%
14:00 +35°C° 0 mm 6 mps 751 mmHg 50%
15:00 +35°C° 0 mm 5 mps 751 mmHg 53%
16:00 +34°C° 0 mm 4 mps 751 mmHg 56%
17:00 +33°C° 0 mm 4 mps 751 mmHg 59%
18:00 +30°C° 0 mm 3 mps 751 mmHg 67%
19:00 +28°C° 0 mm 2 mps 751 mmHg 76%
20:00 +24°C° 0 mm 0 mps 752 mmHg 85%
21:00 +26°C° 0 mm 1 mps 752 mmHg 85%
22:00 +26°C° 0 mm 1 mps 751 mmHg 85%
23:00 +25°C° 0 mm 1 mps 751 mmHg 86%

15 August, Saturday

Time Temperature Precipitation Wind Pressure Humidity
00:00 +25°C° 0 mm 1 mps 751 mmHg 86%
01:00 +25°C° 0 mm 1 mps 751 mmHg 86%
02:00 +25°C° 0 mm 1 mps 751 mmHg 87%
03:00 +25°C° 0 mm 2 mps 751 mmHg 87%
04:00 +25°C° 0 mm 2 mps 751 mmHg 87%
05:00 +25°C° 0 mm 2 mps 751 mmHg 88%
06:00 +27°C° 0 mm 3 mps 751 mmHg 80%
07:00 +29°C° 0 mm 3 mps 751 mmHg 73%
08:00 +31°C° 0 mm 3 mps 751 mmHg 65%
09:00 +33°C° 0 mm 4 mps 751 mmHg 59%
10:00 +35°C° 0 mm 5 mps 751 mmHg 52%
11:00 +36°C° 0 mm 5 mps 751 mmHg 46%
12:00 +36°C° 0 mm 5 mps 751 mmHg 47%
13:00 +36°C° 0 mm 5 mps 751 mmHg 47%
14:00 +36°C° 0 mm 5 mps 751 mmHg 48%
15:00 +35°C° 0 mm 5 mps 750 mmHg 51%
16:00 +34°C° 0 mm 4 mps 750 mmHg 53%
17:00 +34°C° 0 mm 4 mps 750 mmHg 56%
18:00 +31°C° 0 mm 3 mps 751 mmHg 65%
19:00 +29°C° 0 mm 2 mps 751 mmHg 74%
20:00 +27°C° 0 mm 1 mps 751 mmHg 83%
21:00 +26°C° 0 mm 1 mps 751 mmHg 83%
22:00 +26°C° 0 mm 1 mps 751 mmHg 84%
23:00 +23°C° 0 mm 0 mps 751 mmHg 84%

16 August, Sunday

Time Temperature Precipitation Wind Pressure Humidity
00:00 +25°C° 0 mm 1 mps 751 mmHg 84%
01:00 +25°C° 0 mm 1 mps 751 mmHg 84%
02:00 +24°C° 0 mm 1 mps 751 mmHg 84%
03:00 +24°C° 0 mm 1 mps 751 mmHg 84%
04:00 +24°C° 0 mm 2 mps 751 mmHg 85%
05:00 +25°C° 0 mm 2 mps 751 mmHg 85%
06:00 +27°C° 0 mm 2 mps 751 mmHg 77%
07:00 +29°C° 0 mm 3 mps 751 mmHg 70%
08:00 +30°C° 0 mm 3 mps 752 mmHg 62%
09:00 +33°C° 0 mm 3 mps 752 mmHg 55%
10:00 +35°C° 0 mm 4 mps 752 mmHg 47%
11:00 +37°C° 0 mm 5 mps 752 mmHg 40%
12:00 +37°C° 0 mm 5 mps 752 mmHg 41%
13:00 +37°C° 0 mm 5 mps 751 mmHg 42%
14:00 +36°C° 0 mm 5 mps 751 mmHg 44%
15:00 +36°C° 0 mm 5 mps 751 mmHg 47%
16:00 +35°C° 0 mm 4 mps 751 mmHg 51%
17:00 +34°C° 0 mm 4 mps 751 mmHg 54%
18:00 +31°C° 0 mm 3 mps 751 mmHg 64%
19:00 +29°C° 0 mm 2 mps 752 mmHg 73%
20:00 +27°C° 0 mm 2 mps 752 mmHg 83%
21:00 +26°C° 0 mm 1 mps 752 mmHg 82%
22:00 +26°C° 0 mm 1 mps 752 mmHg 81%
23:00 +25°C° 0 mm 1 mps 752 mmHg 80%

17 August, Monday

Time Temperature Precipitation Wind Pressure Humidity
00:00 +25°C° 0 mm 1 mps 752 mmHg 80%
01:00 +25°C° 0 mm 1 mps 751 mmHg 81%
02:00 +24°C° 0 mm 1 mps 751 mmHg 81%
03:00 +24°C° 0 mm 1 mps 751 mmHg 83%
04:00 +24°C° 0 mm 1 mps 752 mmHg 84%
05:00 +24°C° 0 mm 2 mps 752 mmHg 85%
06:00 +26°C° 0 mm 2 mps 752 mmHg 79%
07:00 +28°C° 0 mm 2 mps 752 mmHg 73%
08:00 +30°C° 0 mm 3 mps 753 mmHg 67%
09:00 +31°C° 0 mm 3 mps 752 mmHg 60%
10:00 +34°C° 0 mm 4 mps 752 mmHg 53%
11:00 +36°C° 0 mm 4 mps 752 mmHg 46%
12:00 +35°C° 0 mm 4 mps 752 mmHg 46%
13:00 +35°C° 0 mm 5 mps 751 mmHg 47%
14:00 +35°C° 0 mm 5 mps 751 mmHg 48%
15:00 +34°C° 0 mm 5 mps 751 mmHg 49%
16:00 +34°C° 0 mm 4 mps 751 mmHg 50%
17:00 +33°C° 0 mm 4 mps 751 mmHg 51%
18:00 +30°C° 0 mm 3 mps 751 mmHg 60%
19:00 +28°C° 0 mm 3 mps 752 mmHg 69%
20:00 +26°C° 0 mm 2 mps 752 mmHg 77%
21:00 +25°C° 0 mm 2 mps 752 mmHg 78%
22:00 +25°C° 0 mm 1 mps 752 mmHg 79%
23:00 +24°C° 0 mm 1 mps 752 mmHg 80%
Show more